Powrót do katalogu

THORAD DELTA 1 DEB

AktywnySSO
NORAD 42615·DEBRIS·🇺🇸 United States

Wystrzelony Nov 15, 1974 z Vandenberg Space Force Base

Loading…

Następne Przeloty (najbliższe 24 godziny)

TLE

Starzejące sięSource: Space-Track

Epoka: Sep 10, 2026, 05:04 UTC

1 42615U 74089GG  26253.21123003  .00000052  00000-0  54943-3 0  9991
2 42615 101.7964 243.2691 0075197 133.3899 293.4581 12.60796754588796

Śledź THORAD DELTA 1 DEB w czasie rzeczywistym z AllMySat

Download on the App Store